Regional Weather Roundup
Issued by NWS State College, PA

Home | Current Version | Previous Version | Text Only | Print | Product List | Glossary On
Versions: 1 2 3 4 5 6 7 8 9 10 11 12 13 14 15 16 17 18 19 20 21 22 23 24 25 26 27 28 29 30 31 32 33 34 35 36 37 38 39 40 41 42 43 44 45 46 47 48 49 50
049
ASUS41 KCTP 101210
RWRCTP

REGIONAL WEATHER ROUNDUP
NATIONAL WEATHER SERVICE STATE COLLEGE PA
700 AM EST WED FEB 10 2016

Note: "fair" indicates few or no clouds below 12,000 feet with no
significant weather and/or obstructions to visibility.

* = STATION THAT DOES NOT REPORT PRECIPITATION /E.G. RAIN...SNOW...ETC/
    THUNDER OR FOG.

PAZ002>004-007>009-013>016-020>023-029>032-101300-
WESTERN PENNSYLVANIA

CITY           SKY/WX    TMP DP  RH WIND       PRES   REMARKS
ERIE           LGT SNOW  25  19  78 W18G26    29.69R WCI  11
MEADVILLE      LGT SNOW  22  17  81 W13G22    29.66R WCI  10
FRANKLIN*      CLOUDY    21  16  79 SW13G18   29.68R WCI   9
NEW CASTLE     LGT SNOW  22  17  81 W9G18     29.74R WCI  12
BEAVER COUNTY  FLURRIES  21  16  79 W14G23    29.74  WCI   8
BUTLER*        CLOUDY    21  16  79 W13G18    29.76R WCI   9
PITTSBURGH INT FLURRIES  21  15  78 W10G18    29.75R WCI  10
PITTSBURGH     LGT SNOW  22  15  75 W21G26    29.74R WCI   6
INDIANA*       CLOUDY    23  18  80 W13       29.73R WCI  11
LATROBE        LGT SNOW  23  18  80 W17         N/A  WCI   9
WASHINGTON CO* CLOUDY    19  12  73 SW16G28   29.78R WCI   5
$$

PAZ004>006-010>012-017>019-024>028-033>037-041-042-045-046-049>053-101300-
CENTRAL PENNSYLVANIA

CITY           SKY/WX    TMP DP  RH WIND       PRES   REMARKS
BRADFORD       LGT SNOW  21  16  81 W10G20    29.56R WCI  10
DUBOIS         LGT SNOW  20  16  84 W20G28    29.62R FOG     WCI   4
CLEARFIELD     LGT SNOW  22  16  78 W14G23    29.64R WCI   9
JOHNSTOWN      LGT SNOW  18  11  74 W17G28    29.63R WCI   3
ALTOONA        FLURRIES  23  14  68 W16G26    29.67R WCI  10
STATE COLLEGE  CLOUDY    25  18  74 W17       29.66R WCI  11
WILLIAMSPORT   CLOUDY    30  20  66 W13       29.63R
SELINSGROVE    CLOUDY    29  19  66 VRB7      29.67R
FT INDIANTOWN  CLOUDY    29  22  76 W10       29.65R
CAPITAL CITY   CLOUDY    29  20  69 W7        29.68R
HARRISBURG     MOCLDY    30  21  69 W12       29.68R
YORK           CLOUDY    27  21  78 W7        29.69R
$$

PAZ038>040-043-044-047-048-054-055-060>062-067>071-101300-
EASTERN PENNSYLVANIA

CITY           SKY/WX    TMP DP  RH WIND       PRES   REMARKS
SCRANTON       CLOUDY    28  24  85 SW9       29.57R
MOUNT POCONO   CLOUDY    25  20  81 W12       29.50S WCI  14
ALLENTOWN      CLOUDY    30  25  80 SW8       29.62R HAZE
QUAKERTOWN*    CLOUDY    28  27  93 CALM      29.63R
READING        CLOUDY    30  23  75 W8        29.65R
LANCASTER      CLOUDY    27  25  92 W10       29.67R
COATESVILLE    LGT SNOW  27  27 100 W12       29.66R
POTTSTOWN      CLOUDY    28  25  88 W7        29.66R
BLUE BELL        N/A     28  28 100 CALM      29.64R
DOYLESTOWN     LGT SNOW  28  27  96 W6        29.62R FOG
WILLOW GROVE   NOT AVBL
NORTH PHILA    LGT SNOW  31  28  89 W9        29.67R FOG
PHILADELPHIA   LGT SNOW  31  26  82 W12       29.68R
$$




USA.gov is the U.S. government's official web portal to all federal, state and local government web resources and services.